Weather Roundup
Issued by NWS Chicago, IL

Home | Current Version | Previous Version | Graphics & Text | Print | Product List | Glossary On
Versions: 1 2 3 4 5 6 7 8 9 10 11 12 13 14 15 16 17 18 19 20 21 22 23 24 25 26 27 28 29 30 31 32 33 34 35 36 37 38 39 40 41 42 43 44 45 46 47 48 49 50
000
NZUS59 KLOT 251809
HRRLOT

CHICAGO AREA WEATHER ROUNDUP
NATIONAL WEATHER SERVICE CHICAGO/ROMEOVILLE IL
100 PM CDT THU MAY 25 2017

NOTE: "FAIR" INDICATES FEW OR NO CLOUDS BELOW 12,000 FEET WITH NO
SIGNIFICANT WEATHER AND/OR OBSTRUCTIONS TO VISIBILITY.

* THESE STATIONS ARE NOT UNDER NWS QUALITY CONTROL. THEY ALSO MAY NOT
  REPORT WEATHER SUCH AS PRECIPITATION OR FOG.

ILZ005-006-012>014-019>023-251900-
NORTHEAST ILLINOIS

CITY           SKY/WX    TMP DP  RH WIND       PRES   REMARKS
OHARE          CLOUDY    66  53  63 N9        29.62F
6HR MIN TEMP:  55; 6HR MAX TEMP:  66;

MIDWAY         CLOUDY    64  53  67 N10       29.63R
6HR MIN TEMP:  56; 6HR MAX TEMP:  64;

AURORA         CLOUDY    63  55  75 NW13      29.66S
6HR MIN TEMP:  56; 6HR MAX TEMP:  63;

LANSING*       PTSUNNY   62  57  83 N8        29.63F
JOLIET*        CLOUDY    64  55  73 NW5       29.65S
WAUKEGAN       MOSUNNY   64  53  67 N10G20    29.63R
6HR MIN TEMP:  53; 6HR MAX TEMP:  66;

DUPAGE AIRPORT PTSUNNY   66  56  70 N10       29.64S
6HR MIN TEMP:  54; 6HR MAX TEMP:  66;

WHEELING       CLOUDY    64  55  72 N8        29.64R
6HR MIN TEMP:  54; 6HR MAX TEMP:  64;

KANKAKEE*      CLOUDY    63  54  72 CALM      29.65S
MORRIS*        CLOUDY    62  55  76 NW13G18   29.66S
LEWIS AIRPORT* CLOUDY    64  58  82 NW9       29.65S
NORTHERLY ISL    N/A     58  51  78 MISG        N/A
$$

WIZ051-052-058>065-066-070>072-251900-
SOUTHEAST WISCONSIN

CITY           SKY/WX    TMP DP  RH WIND       PRES   REMARKS
MILWAUKEE      MOSUNNY   64  53  67 N13       29.65S
6HR MIN TEMP:  55; 6HR MAX TEMP:  64;

KENOSHA*       MOSUNNY   66  55  67 N12G22    29.64S
RACINE*        MOSUNNY   62  52  69 N17       29.66S
WAUKESHA       CLOUDY    63  52  67 NW10      29.66S
WEST BEND      PTSUNNY   64  54  68 NE12G18   29.65S
$$

INZ001>003-010>013-019-020-251900-
NORTHWEST INDIANA

CITY           SKY/WX    TMP DP  RH WIND       PRES   REMARKS
GARY*          PTSUNNY  N/A N/A N/A N14G25    29.64
MICHIGAN CITY* NOT AVBL
RENSSELAER*    NOT AVBL
VALPARAISO     MOSUNNY   59  54  83 NW10      29.61S
$$

LMZ740>746-251900-
SOUTHERN LAKE MICHIGAN

STATION/POSITION TIME  SKY/WX   TEMP WIND        PRES    VSBY
                                AIR  DIR/SP/G
                 (UTC)          (F)  (DEG/KT/KT) (MB)    (MI)
HARRISON CRIB    1740            53  340/ 15/ 17   N/A
BURNHAM HARBOR   1800            60  330/  8/ 17   N/A
CALUMET HARBOR   1748            56  340/ 15/ 21 1003.4R
BURNS HARBOR     1740            50  320/ 13/ 16 1003.7S
MICHIGAN CITY    1740            48  290/ 15/ 16   N/A
$$

ABBREVIATIONS USED IN REMARKS
   TC - TEMPERATURE IN CELSIUS
  WCI - WIND CHILL INDEX
   HX - HEAT INDEX
  VSB - VISIBILITY
$$



USA.gov is the U.S. government's official web portal to all federal, state and local government web resources and services.